| time (UTC) | temp F | wind direction | speed MPH | gust MPH | rain 1hr in | rain 24hr in | rain mn in | humidity % | barometer mb |
| 20260904201103 | 82 | 198 | 0.0 | 0.0 | 0.00 | 0.15 | 0.13 | 92 | 999.4 |
| 20260904200831 | 82 | 198 | 0.0 | 0.0 | 0.00 | 0.16 | 0.13 | 93 | 999.4 |
| 20260904200104 | 82 | 198 | 0.0 | 0.0 | 0.00 | 0.16 | 0.13 | 93 | 999.5 |
| 20260904195556 | 82 | 183 | 0.0 | 1.0 | 0.00 | 0.17 | 0.13 | 93 | 999.5 |
| 20260904195058 | 82 | 198 | 0.0 | 1.0 | 0.00 | 0.18 | 0.13 | 92 | 999.4 |
| 20260904194816 | 82 | 198 | 0.0 | 1.0 | 0.00 | 0.18 | 0.13 | 93 | 999.5 |
| 20260904194055 | 82 | 176 | 0.0 | 1.0 | 0.00 | 0.18 | 0.13 | 93 | 999.5 |
| 20260904193551 | 82 | 176 | 0.0 | 1.0 | 0.00 | 0.18 | 0.13 | 93 | 999.4 |
| 20260904193319 | 81 | 176 | 0.0 | 1.0 | 0.00 | 0.18 | 0.13 | 92 | 999.5 |
| 20260904192549 | 81 | 176 | 0.0 | 2.0 | 0.00 | 0.18 | 0.13 | 93 | 999.6 |
| 20260904192049 | 81 | 176 | 1.0 | 3.0 | 0.00 | 0.18 | 0.13 | 93 | 999.7 |
| 20260904191815 | 81 | 182 | 1.0 | 3.0 | 0.00 | 0.18 | 0.13 | 93 | 999.7 |
| 20260904191305 | 81 | 207 | 1.0 | 3.0 | 0.00 | 0.18 | 0.13 | 93 | 999.7 |
| 20260904190548 | 80 | 127 | 1.0 | 4.0 | 0.02 | 0.19 | 0.13 | 94 | 999.8 |
| 20260904190046 | 80 | 0 | 1.0 | 4.0 | 0.09 | 0.20 | 0.13 | 93 | 1000.0 |
| 20260904185807 | 80 | 191 | 1.0 | 3.0 | 0.10 | 0.21 | 0.13 | 94 | 1000.0 |
| 20260904185045 | 80 | 0 | 0.0 | 3.0 | 0.10 | 0.26 | 0.13 | 93 | 1000.1 |
| 20260904184543 | 80 | 170 | 0.0 | 2.0 | 0.10 | 0.33 | 0.13 | 93 | 1000.4 |
| 20260904184042 | 80 | 0 | 0.0 | 3.0 | 0.10 | 0.45 | 0.13 | 93 | 1000.4 |
| 20260904183541 | 80 | 0 | 0.0 | 3.0 | 0.10 | 0.49 | 0.13 | 92 | 1000.5 |
| 20260904183307 | 80 | 186 | 0.0 | 1.0 | 0.10 | 0.50 | 0.13 | 92 | 1000.7 |
| 20260904182801 | 80 | 186 | 0.0 | 1.0 | 0.10 | 0.50 | 0.13 | 91 | 1000.8 |
| 20260904182039 | 80 | 0 | 0.0 | 1.0 | 0.10 | 0.50 | 0.13 | 90 | 1000.8 |
| 20260904181801 | 80 | 0 | 0.0 | 2.0 | 0.10 | 0.50 | 0.13 | 90 | 1000.8 |
| 20260904181035 | 81 | 0 | 1.0 | 5.0 | 0.10 | 0.50 | 0.13 | 89 | 1000.8 |
| 20260904180803 | 82 | 0 | 2.0 | 8.0 | 0.08 | 0.48 | 0.12 | 87 | 1000.9 |
| 20260904180035 | 83 | 0 | 2.0 | 8.0 | 0.01 | 0.41 | 0.04 | 85 | 1001.0 |
| 20260904175531 | 83 | 0 | 2.0 | 6.0 | 0.00 | 0.40 | 0.03 | 84 | 1001.2 |
| 20260904175030 | 84 | 0 | 3.0 | 9.0 | 0.00 | 0.40 | 0.03 | 83 | 1001.0 |
| 20260904174531 | 85 | 0 | 3.0 | 9.0 | 0.00 | 0.40 | 0.03 | 82 | 1001.3 |
| 20260904174029 | 85 | 0 | 2.0 | 9.0 | 0.00 | 0.40 | 0.03 | 83 | 1001.2 |
| 20260904173531 | 85 | 308 | 1.0 | 6.0 | 0.00 | 0.40 | 0.03 | 84 | 1000.8 |
| 20260904173025 | 85 | 231 | 0.0 | 6.0 | 0.00 | 0.40 | 0.03 | 85 | 1000.8 |
| 20260904172749 | 85 | 0 | 0.0 | 3.0 | 0.00 | 0.40 | 0.03 | 85 | 1000.9 |
| 20260904172022 | 85 | 0 | 1.0 | 4.0 | 0.00 | 0.40 | 0.03 | 85 | 1001.0 |
| 20260904171517 | 86 | 0 | 1.0 | 4.0 | 0.00 | 0.40 | 0.03 | 83 | 1001.1 |
| 20260904171017 | 87 | 186 | 1.0 | 4.0 | 0.00 | 0.40 | 0.03 | 83 | 1001.0 |
| 20260904170515 | 88 | 178 | 2.0 | 5.0 | 0.00 | 0.40 | 0.03 | 84 | 1001.0 |
| 20260904170014 | 88 | 196 | 1.0 | 5.0 | 0.00 | 0.40 | 0.03 | 84 | 1001.1 |
| 20260904165513 | 88 | 191 | 1.0 | 4.0 | 0.00 | 0.40 | 0.03 | 84 | 1001.0 |
| 20260904165013 | 88 | 86 | 0.0 | 2.0 | 0.00 | 0.40 | 0.03 | 89 | 1000.8 |
| 20260904164735 | 88 | 153 | 1.0 | 4.0 | 0.00 | 0.40 | 0.03 | 89 | 1000.8 |
| 20260904164010 | 87 | 212 | 1.0 | 4.0 | 0.00 | 0.40 | 0.03 | 89 | 1000.9 |
| 20260904163730 | 87 | 106 | 1.0 | 2.0 | 0.00 | 0.40 | 0.03 | 91 | 1000.9 |
| 20260904163009 | 87 | 320 | 1.0 | 2.0 | 0.00 | 0.40 | 0.03 | 91 | 1000.9 |
| 20260904162509 | 87 | 70 | 1.0 | 4.0 | 0.00 | 0.40 | 0.03 | 92 | 1000.8 |
| 20260904162009 | 87 | 135 | 1.0 | 4.0 | 0.00 | 0.40 | 0.03 | 92 | 1000.6 |
| 20260904161738 | 86 | 40 | 1.0 | 3.0 | 0.00 | 0.40 | 0.03 | 92 | 1000.5 |
| 20260904161009 | 86 | 44 | 1.0 | 3.0 | 0.00 | 0.40 | 0.03 | 92 | 1000.5 |
| 20260904160509 | 86 | 290 | 0.0 | 2.0 | 0.00 | 0.40 | 0.03 | 93 | 1000.4 |
| 20260904160009 | 86 | 11 | 0.0 | 2.0 | 0.00 | 0.40 | 0.03 | 93 | 1000.4 |
| 20260904155726 | 86 | 11 | 0.0 | 2.0 | 0.00 | 0.40 | 0.03 | 93 | 1000.5 |
| 20260904155007 | 86 | 224 | 1.0 | 4.0 | 0.00 | 0.40 | 0.03 | 93 | 1000.4 |
| 20260904154505 | 86 | 221 | 2.0 | 5.0 | 0.00 | 0.40 | 0.03 | 92 | 1000.4 |
| 20260904154005 | 85 | 192 | 2.0 | 5.0 | 0.00 | 0.40 | 0.03 | 92 | 1000.4 |
| 20260904153505 | 85 | 186 | 1.0 | 4.0 | 0.00 | 0.40 | 0.03 | 95 | 1000.4 |
| 20260904153005 | 85 | 175 | 1.0 | 4.0 | 0.00 | 0.40 | 0.03 | 96 | 1000.4 |
| 20260904152951 | 84 | 190 | 1.0 | 4.0 | 0.00 | 0.40 | 0.03 | 97 | 1000.3 |
| 20260904152005 | 84 | 227 | 0.0 | 5.0 | 0.00 | 0.40 | 0.03 | 98 | 1000.3 |
| 20260904151507 | 84 | 189 | 0.0 | 5.0 | 0.00 | 0.40 | 0.03 | 98 | 1000.4 |
| 20260904151007 | 84 | 194 | 1.0 | 5.0 | 0.00 | 0.40 | 0.03 | 98 | 1000.3 |
| 20260904150506 | 83 | 196 | 1.0 | 5.0 | 0.00 | 0.40 | 0.03 | 98 | 1000.4 |
| 20260904150006 | 83 | 74 | 0.0 | 1.0 | 0.01 | 0.40 | 0.03 | 99 | 1000.4 |
| 20260904145729 | 83 | 75 | 0.0 | 2.0 | 0.01 | 0.40 | 0.03 | 99 | 1000.4 |
| 20260904145005 | 83 | 119 | 1.0 | 3.0 | 0.01 | 0.40 | 0.03 | 99 | 1000.3 |
| 20260904144505 | 83 | 84 | 0.0 | 3.0 | 0.01 | 0.40 | 0.03 | 99 | 1000.4 |
| 20260904144226 | 82 | 139 | 0.0 | 1.0 | 0.01 | 0.40 | 0.03 | 100 | 1000.4 |
| 20260904143505 | 82 | 148 | 0.0 | 1.0 | 0.01 | 0.40 | 0.03 | 100 | 1000.3 |
| 20260904143006 | 82 | 195 | 0.0 | 2.0 | 0.01 | 0.40 | 0.03 | 100 | 1000.3 |
| 20260904142505 | 81 | 196 | 0.0 | 2.0 | 0.01 | 0.40 | 0.03 | 100 | 1000.3 |
| 20260904142001 | 81 | 196 | 0.0 | 2.0 | 0.01 | 0.40 | 0.03 | 100 | 1000.3 |
| 20260904141501 | 81 | 0 | 1.0 | 2.0 | 0.01 | 0.40 | 0.03 | 100 | 1000.3 |
| 20260904141222 | 81 | 202 | 1.0 | 2.0 | 0.01 | 0.40 | 0.03 | 100 | 1000.3 |
| 20260904140501 | 81 | 182 | 0.0 | 2.0 | 0.01 | 0.40 | 0.03 | 100 | 1000.3 |
| 20260904140000 | 81 | 182 | 0.0 | 2.0 | 0.00 | 0.39 | 0.02 | 100 | 1000.2 |
| 20260904135501 | 81 | 161 | 1.0 | 2.0 | 0.00 | 0.39 | 0.02 | 100 | 1000.2 |
| 20260904135000 | 81 | 126 | 0.0 | 2.0 | 0.00 | 0.39 | 0.02 | 100 | 1000.1 |
| 20260904134501 | 81 | 128 | 0.0 | 1.0 | 0.00 | 0.39 | 0.02 | 100 | 1000.0 |
| 20260904134002 | 80 | 126 | 0.0 | 2.0 | 0.00 | 0.39 | 0.02 | 100 | 1000.0 |
| 20260904133457 | 80 | 126 | 0.0 | 2.0 | 0.00 | 0.39 | 0.02 | 100 | 1000.0 |
| 20260904132957 | 80 | 209 | 0.0 | 0.0 | 0.00 | 0.39 | 0.02 | 100 | 1000.0 |
| 20260904132939 | 80 | 209 | 0.0 | 0.0 | 0.00 | 0.39 | 0.02 | 100 | 999.9 |
| 20260904131957 | 80 | 209 | 0.0 | 0.0 | 0.00 | 0.39 | 0.02 | 100 | 999.9 |
| 20260904131458 | 79 | 209 | 0.0 | 0.0 | 0.00 | 0.39 | 0.02 | 100 | 999.9 |
| 20260904131215 | 79 | 209 | 0.0 | 0.0 | 0.00 | 0.39 | 0.02 | 100 | 999.9 |
| 20260904130457 | 79 | 209 | 0.0 | 0.0 | 0.00 | 0.39 | 0.02 | 100 | 999.8 |
| 20260904125956 | 79 | 209 | 0.0 | 0.0 | 0.00 | 0.39 | 0.02 | 100 | 999.8 |
| 20260904125457 | 79 | 209 | 0.0 | 0.0 | 0.00 | 0.39 | 0.02 | 100 | 999.8 |
| 20260904124953 | 79 | 209 | 0.0 | 0.0 | 0.00 | 0.39 | 0.02 | 100 | 999.7 |
| 20260904124453 | 79 | 209 | 0.0 | 0.0 | 0.00 | 0.39 | 0.02 | 100 | 999.6 |
| 20260904123954 | 79 | 209 | 0.0 | 0.0 | 0.00 | 0.39 | 0.02 | 100 | 999.6 |
| 20260904123453 | 79 | 209 | 0.0 | 0.0 | 0.00 | 0.39 | 0.02 | 100 | 999.5 |
| 20260904122953 | 79 | 209 | 0.0 | 0.0 | 0.00 | 0.39 | 0.02 | 100 | 999.4 |
| 20260904122712 | 79 | 209 | 0.0 | 0.0 | 0.00 | 0.39 | 0.02 | 100 | 999.3 |
| 20260904121953 | 79 | 209 | 0.0 | 0.0 | 0.00 | 0.39 | 0.02 | 100 | 999.3 |
| 20260904121452 | 79 | 209 | 0.0 | 0.0 | 0.00 | 0.39 | 0.02 | 100 | 999.3 |
| 20260904120953 | 79 | 209 | 0.0 | 0.0 | 0.00 | 0.39 | 0.02 | 100 | 999.2 |
| 20260904120453 | 79 | 209 | 0.0 | 0.0 | 0.00 | 0.39 | 0.02 | 100 | 999.1 |
| 20260904115952 | 79 | 209 | 0.0 | 0.0 | 0.00 | 0.39 | 0.02 | 100 | 999.1 |
| 20260904115452 | 79 | 209 | 0.0 | 0.0 | 0.00 | 0.39 | 0.02 | 100 | 999.1 |
| 20260904114953 | 79 | 209 | 0.0 | 0.0 | 0.00 | 0.39 | 0.02 | 100 | 999.2 |
| 20260904114453 | 79 | 209 | 0.0 | 0.0 | 0.00 | 0.39 | 0.02 | 100 | 999.2 |
| 20260904113954 | 79 | 209 | 0.0 | 0.0 | 0.00 | 0.39 | 0.02 | 100 | 999.2 |
| 20260904113721 | 79 | 209 | 0.0 | 0.0 | 0.00 | 0.39 | 0.02 | 100 | 999.2 |
| 20260904113217 | 79 | 209 | 0.0 | 0.0 | 0.00 | 0.39 | 0.02 | 100 | 999.1 |
| 20260904112454 | 79 | 209 | 0.0 | 0.0 | 0.00 | 0.39 | 0.02 | 100 | 999.1 |
| 20260904112436 | 79 | 209 | 0.0 | 0.0 | 0.00 | 0.39 | 0.02 | 100 | 999.1 |
| 20260904111454 | 79 | 209 | 0.0 | 0.0 | 0.00 | 0.39 | 0.02 | 100 | 999.0 |
| 20260904110953 | 79 | 209 | 0.0 | 0.0 | 0.00 | 0.39 | 0.02 | 100 | 999.0 |
| 20260904110453 | 79 | 209 | 0.0 | 0.0 | 0.00 | 0.39 | 0.02 | 100 | 998.9 |
| 20260904105952 | 79 | 209 | 0.0 | 0.0 | 0.00 | 0.39 | 0.02 | 100 | 998.9 |
| 20260904105451 | 79 | 209 | 0.0 | 0.0 | 0.01 | 0.39 | 0.02 | 100 | 998.9 |
| 20260904104953 | 79 | 209 | 0.0 | 0.0 | 0.01 | 0.39 | 0.02 | 100 | 998.8 |
| 20260904104448 | 79 | 209 | 0.0 | 0.0 | 0.02 | 0.39 | 0.02 | 100 | 998.7 |
| 20260904103946 | 79 | 209 | 0.0 | 0.0 | 0.02 | 0.39 | 0.02 | 100 | 998.7 |
| 20260904103441 | 79 | 209 | 0.0 | 0.0 | 0.02 | 0.39 | 0.02 | 100 | 998.7 |
| 20260904102940 | 79 | 209 | 0.0 | 0.0 | 0.02 | 0.39 | 0.02 | 100 | 998.7 |
| 20260904102704 | 79 | 209 | 0.0 | 0.0 | 0.02 | 0.39 | 0.02 | 100 | 998.7 |
| 20260904101937 | 79 | 209 | 0.0 | 0.0 | 0.02 | 0.39 | 0.02 | 100 | 998.7 |
| 20260904101656 | 79 | 209 | 0.0 | 0.0 | 0.02 | 0.39 | 0.02 | 100 | 998.7 |
| 20260904100935 | 79 | 209 | 0.0 | 0.0 | 0.02 | 0.39 | 0.02 | 100 | 998.7 |
| 20260904100432 | 79 | 209 | 0.0 | 0.0 | 0.02 | 0.39 | 0.02 | 100 | 998.6 |
| 20260904095932 | 79 | 209 | 0.0 | 0.0 | 0.02 | 0.39 | 0.02 | 100 | 998.6 |
| 20260904095430 | 79 | 209 | 0.0 | 0.0 | 0.01 | 0.38 | 0.02 | 100 | 998.6 |
| 20260904095153 | 79 | 209 | 0.0 | 0.0 | 0.01 | 0.38 | 0.01 | 100 | 998.6 |
| 20260904094424 | 79 | 209 | 0.0 | 0.0 | 0.00 | 0.37 | 0.00 | 100 | 998.5 |
| 20260904093924 | 79 | 209 | 0.0 | 0.0 | 0.00 | 0.37 | 0.00 | 100 | 998.5 |
| 20260904093424 | 79 | 209 | 0.0 | 0.0 | 0.00 | 0.37 | 0.00 | 100 | 998.5 |
| 20260904092924 | 79 | 209 | 0.0 | 0.0 | 0.00 | 0.37 | 0.00 | 100 | 998.5 |
| 20260904092420 | 79 | 209 | 0.0 | 0.0 | 0.00 | 0.37 | 0.00 | 100 | 998.4 |
| 20260904091919 | 79 | 209 | 0.0 | 0.0 | 0.00 | 0.37 | 0.00 | 100 | 998.4 |
| 20260904091416 | 79 | 209 | 0.0 | 0.0 | 0.00 | 0.37 | 0.00 | 100 | 998.3 |
| 20260904090916 | 79 | 209 | 0.0 | 0.0 | 0.00 | 0.37 | 0.00 | 100 | 998.3 |
| 20260904090413 | 79 | 209 | 0.0 | 0.0 | 0.00 | 0.37 | 0.00 | 100 | 998.3 |
| 20260904085911 | 79 | 209 | 0.0 | 0.0 | 0.00 | 0.37 | 0.00 | 100 | 998.3 |
| 20260904085635 | 79 | 209 | 0.0 | 0.0 | 0.00 | 0.37 | 0.00 | 100 | 998.3 |
| 20260904084909 | 79 | 209 | 0.0 | 0.0 | 0.00 | 0.37 | 0.00 | 100 | 998.3 |
| 20260904084407 | 79 | 209 | 0.0 | 0.0 | 0.00 | 0.37 | 0.00 | 100 | 998.3 |
| 20260904083904 | 79 | 209 | 0.0 | 0.0 | 0.00 | 0.37 | 0.00 | 100 | 998.3 |
| 20260904083402 | 79 | 209 | 0.0 | 0.0 | 0.00 | 0.37 | 0.00 | 100 | 998.3 |
| 20260904082859 | 79 | 209 | 0.0 | 0.0 | 0.00 | 0.37 | 0.00 | 100 | 998.2 |
| 20260904082358 | 79 | 209 | 0.0 | 0.0 | 0.00 | 0.37 | 0.00 | 100 | 998.2 |
| 20260904081857 | 79 | 209 | 0.0 | 0.0 | 0.00 | 0.37 | 0.00 | 100 | 998.3 |
| 20260904081356 | 79 | 209 | 0.0 | 0.0 | 0.00 | 0.37 | 0.00 | 100 | 998.4 |
| 20260904080856 | 79 | 209 | 0.0 | 0.0 | 0.00 | 0.37 | 0.00 | 100 | 998.4 |
| 20260904080356 | 79 | 209 | 0.0 | 0.0 | 0.00 | 0.37 | 0.00 | 100 | 998.4 |
| 20260904075857 | 79 | 209 | 0.0 | 0.0 | 0.00 | 0.37 | 0.00 | 100 | 998.4 |
| 20260904075353 | 79 | 209 | 0.0 | 0.0 | 0.00 | 0.37 | 0.00 | 100 | 998.4 |
| 20260904074852 | 79 | 209 | 0.0 | 0.0 | 0.00 | 0.37 | 0.00 | 100 | 998.5 |
| 20260904074352 | 79 | 209 | 0.0 | 0.0 | 0.00 | 0.37 | 0.00 | 100 | 998.5 |
| 20260904073849 | 79 | 209 | 0.0 | 0.0 | 0.00 | 0.37 | 0.00 | 100 | 998.5 |
| 20260904073348 | 79 | 209 | 0.0 | 0.0 | 0.00 | 0.37 | 0.00 | 100 | 998.6 |
| 20260904072849 | 79 | 209 | 0.0 | 0.0 | 0.00 | 0.37 | 0.00 | 100 | 998.7 |
| 20260904072349 | 79 | 209 | 0.0 | 0.0 | 0.00 | 0.37 | 0.00 | 100 | 998.8 |
| 20260904071849 | 79 | 209 | 0.0 | 0.0 | 0.00 | 0.37 | 0.00 | 100 | 998.9 |
| 20260904071612 | 79 | 209 | 0.0 | 0.0 | 0.00 | 0.37 | 0.00 | 100 | 998.9 |
| 20260904070850 | 79 | 209 | 0.0 | 0.0 | 0.00 | 0.37 | 0.00 | 100 | 998.9 |
| 20260904070348 | 79 | 209 | 0.0 | 0.0 | 0.00 | 0.37 | 0.00 | 100 | 998.9 |
| 20260904065848 | 79 | 209 | 0.0 | 0.0 | 0.00 | 0.37 | 0.00 | 100 | 998.9 |
| 20260904065349 | 79 | 209 | 0.0 | 0.0 | 0.00 | 0.37 | 0.00 | 100 | 998.9 |
| 20260904064850 | 79 | 209 | 0.0 | 0.0 | 0.00 | 0.37 | 0.00 | 100 | 998.9 |
| 20260904064348 | 79 | 209 | 0.0 | 0.0 | 0.00 | 0.37 | 0.00 | 100 | 998.8 |
| 20260904063848 | 79 | 209 | 0.0 | 0.0 | 0.00 | 0.37 | 0.00 | 100 | 998.8 |
| 20260904063348 | 79 | 209 | 0.0 | 0.0 | 0.00 | 0.37 | 0.00 | 100 | 998.8 |
| 20260904062849 | 79 | 209 | 0.0 | 0.0 | 0.00 | 0.37 | 0.00 | 100 | 998.8 |
| 20260904062612 | 79 | 209 | 0.0 | 0.0 | 0.00 | 0.37 | 0.00 | 100 | 998.8 |
| 20260904061848 | 79 | 209 | 0.0 | 0.0 | 0.00 | 0.37 | 0.00 | 100 | 998.7 |
| 20260904061614 | 79 | 209 | 0.0 | 0.0 | 0.00 | 0.37 | 0.00 | 100 | 998.7 |
| 20260904060848 | 79 | 209 | 0.0 | 0.0 | 0.00 | 0.37 | 0.00 | 100 | 998.8 |
| 20260904060830 | 79 | 209 | 0.0 | 0.0 | 0.00 | 0.37 | 0.00 | 100 | 998.9 |
| 20260904055848 | 79 | 209 | 0.0 | 0.0 | 0.00 | 0.37 | 0.00 | 100 | 998.9 |
| 20260904055348 | 79 | 209 | 0.0 | 0.0 | 0.00 | 0.37 | 0.00 | 100 | 999.0 |
| 20260904054850 | 79 | 209 | 0.0 | 0.0 | 0.00 | 0.37 | 0.00 | 100 | 998.9 |
| 20260904054613 | 79 | 209 | 0.0 | 0.0 | 0.00 | 0.37 | 0.00 | 99 | 998.9 |
| 20260904053850 | 79 | 209 | 0.0 | 0.0 | 0.00 | 0.38 | 0.00 | 99 | 998.8 |
| 20260904053349 | 79 | 209 | 0.0 | 0.0 | 0.00 | 0.39 | 0.00 | 99 | 998.7 |
| 20260904052848 | 79 | 209 | 0.0 | 0.0 | 0.00 | 0.40 | 0.00 | 99 | 998.7 |
| 20260904052348 | 79 | 209 | 0.0 | 0.0 | 0.00 | 0.41 | 0.00 | 99 | 998.7 |
| 20260904051848 | 79 | 209 | 0.0 | 0.0 | 0.00 | 0.42 | 0.00 | 99 | 998.8 |
| 20260904051349 | 79 | 209 | 0.0 | 0.0 | 0.00 | 0.44 | 0.00 | 99 | 998.8 |
| 20260904050848 | 79 | 209 | 0.0 | 0.0 | 0.00 | 0.45 | 0.00 | 99 | 998.7 |
| 20260904050348 | 79 | 209 | 0.0 | 0.0 | 0.00 | 0.46 | 0.00 | 99 | 998.7 |
| 20260904045845 | 79 | 209 | 0.0 | 0.0 | 0.00 | 0.46 | 0.46 | 99 | 998.8 |
| 20260904045344 | 79 | 209 | 0.0 | 0.0 | 0.00 | 0.47 | 0.46 | 99 | 998.7 |
| 20260904045104 | 79 | 209 | 0.0 | 0.0 | 0.00 | 0.48 | 0.46 | 99 | 998.7 |
| 20260904044345 | 79 | 209 | 0.0 | 0.0 | 0.00 | 0.49 | 0.46 | 99 | 998.8 |
| 20260904043844 | 79 | 209 | 0.0 | 0.0 | 0.00 | 0.50 | 0.46 | 99 | 998.7 |
| 20260904043345 | 79 | 209 | 0.0 | 0.0 | 0.00 | 0.51 | 0.46 | 99 | 998.7 |
| 20260904042845 | 79 | 209 | 0.0 | 0.0 | 0.00 | 0.53 | 0.46 | 99 | 998.7 |
| 20260904042344 | 79 | 209 | 0.0 | 0.0 | 0.00 | 0.54 | 0.46 | 99 | 998.7 |
| 20260904041846 | 79 | 209 | 0.0 | 0.0 | 0.00 | 0.56 | 0.46 | 99 | 998.7 |
| 20260904041826 | 79 | 209 | 0.0 | 0.0 | 0.00 | 0.57 | 0.46 | 99 | 998.7 |
| 20260904041104 | 79 | 209 | 0.0 | 0.0 | 0.00 | 0.58 | 0.46 | 99 | 998.7 |
| 20260904040343 | 79 | 209 | 0.0 | 0.0 | 0.00 | 0.58 | 0.46 | 99 | 998.8 |
| 20260904035844 | 79 | 209 | 0.0 | 2.0 | 0.00 | 0.59 | 0.46 | 99 | 998.8 |
| 20260904035342 | 79 | 209 | 1.0 | 2.0 | 0.00 | 0.60 | 0.46 | 99 | 998.7 |
| 20260904034842 | 79 | 209 | 0.0 | 2.0 | 0.00 | 0.60 | 0.46 | 99 | 998.7 |
| 20260904034338 | 79 | 235 | 0.0 | 0.0 | 0.00 | 0.60 | 0.46 | 99 | 998.8 |
| 20260904033840 | 78 | 235 | 0.0 | 0.0 | 0.00 | 0.60 | 0.46 | 99 | 998.7 |
| 20260904033336 | 78 | 235 | 0.0 | 0.0 | 0.00 | 0.60 | 0.46 | 99 | 998.7 |
| 20260904032836 | 78 | 235 | 0.0 | 0.0 | 0.00 | 0.60 | 0.46 | 99 | 998.7 |
| 20260904032557 | 78 | 235 | 0.0 | 0.0 | 0.00 | 0.60 | 0.46 | 99 | 998.7 |
| 20260904031833 | 79 | 235 | 0.0 | 0.0 | 0.00 | 0.60 | 0.46 | 99 | 998.8 |
| 20260904031332 | 78 | 235 | 0.0 | 0.0 | 0.00 | 0.60 | 0.46 | 99 | 998.7 |
| 20260904030830 | 79 | 235 | 0.0 | 0.0 | 0.00 | 0.60 | 0.46 | 99 | 998.7 |
| 20260904030549 | 78 | 235 | 0.0 | 0.0 | 0.00 | 0.60 | 0.46 | 99 | 998.8 |
| 20260904025829 | 79 | 235 | 0.0 | 0.0 | 0.00 | 0.60 | 0.46 | 99 | 998.8 |
| 20260904025331 | 79 | 235 | 0.0 | 0.0 | 0.00 | 0.60 | 0.46 | 99 | 998.8 |
| 20260904024825 | 79 | 235 | 0.0 | 0.0 | 0.00 | 0.60 | 0.46 | 99 | 998.6 |
| 20260904024548 | 79 | 235 | 0.0 | 0.0 | 0.00 | 0.60 | 0.46 | 99 | 998.5 |
| 20260904023825 | 79 | 235 | 0.0 | 0.0 | 0.00 | 0.60 | 0.46 | 99 | 998.5 |
| 20260904023322 | 79 | 235 | 0.0 | 0.0 | 0.00 | 0.60 | 0.46 | 99 | 998.5 |
| 20260904022814 | 79 | 235 | 0.0 | 0.0 | 0.00 | 0.60 | 0.46 | 99 | 998.5 |
| 20260904022309 | 79 | 235 | 0.0 | 0.0 | 0.00 | 0.60 | 0.46 | 99 | 998.4 |
| 20260904021806 | 79 | 235 | 0.0 | 0.0 | 0.00 | 0.60 | 0.46 | 99 | 998.3 |
| 20260904021305 | 79 | 235 | 0.0 | 0.0 | 0.00 | 0.60 | 0.46 | 99 | 998.2 |
| 20260904020802 | 79 | 235 | 0.0 | 0.0 | 0.00 | 0.60 | 0.46 | 99 | 998.2 |
| 20260904020303 | 78 | 235 | 0.0 | 0.0 | 0.00 | 0.60 | 0.46 | 99 | 998.1 |
| 20260904015802 | 79 | 235 | 0.0 | 0.0 | 0.00 | 0.60 | 0.46 | 99 | 997.9 |
| 20260904015302 | 78 | 235 | 0.0 | 0.0 | 0.00 | 0.60 | 0.46 | 99 | 997.9 |
| 20260904014802 | 79 | 235 | 0.0 | 0.0 | 0.00 | 0.60 | 0.46 | 99 | 997.9 |
| 20260904014258 | 79 | 235 | 0.0 | 0.0 | 0.00 | 0.60 | 0.46 | 99 | 997.8 |
| 20260904013759 | 79 | 235 | 0.0 | 0.0 | 0.00 | 0.60 | 0.46 | 99 | 997.7 |
| 20260904013258 | 79 | 235 | 0.0 | 0.0 | 0.00 | 0.60 | 0.46 | 99 | 997.7 |
| 20260904012758 | 79 | 235 | 0.0 | 0.0 | 0.00 | 0.60 | 0.46 | 99 | 997.6 |
| 20260904012258 | 79 | 235 | 0.0 | 0.0 | 0.00 | 0.60 | 0.46 | 99 | 997.6 |
| 20260904011756 | 79 | 235 | 0.0 | 0.0 | 0.00 | 0.61 | 0.46 | 99 | 997.6 |
| 20260904011257 | 79 | 235 | 0.0 | 0.0 | 0.00 | 0.61 | 0.46 | 99 | 997.7 |
| 20260904010754 | 79 | 235 | 0.0 | 0.0 | 0.00 | 0.61 | 0.46 | 99 | 997.7 |
| 20260904010254 | 79 | 235 | 0.0 | 0.0 | 0.00 | 0.62 | 0.46 | 99 | 997.6 |
| 20260904005754 | 79 | 235 | 0.0 | 0.0 | 0.00 | 0.63 | 0.46 | 98 | 997.6 |
| 20260904005254 | 79 | 235 | 0.0 | 0.0 | 0.00 | 0.67 | 0.46 | 98 | 997.7 |
| 20260904005017 | 79 | 235 | 0.0 | 0.0 | 0.00 | 0.76 | 0.46 | 98 | 997.6 |
| 20260904004511 | 79 | 235 | 0.0 | 0.0 | 0.00 | 1.04 | 0.46 | 98 | 997.6 |
| 20260904003751 | 79 | 235 | 0.0 | 1.0 | 0.00 | 1.25 | 0.46 | 98 | 997.7 |
| 20260904003507 | 79 | 235 | 0.0 | 1.0 | 0.00 | 1.48 | 0.46 | 98 | 997.7 |
| 20260904003009 | 79 | 235 | 0.0 | 1.0 | 0.00 | 1.48 | 0.46 | 98 | 997.8 |
| 20260904002246 | 79 | 235 | 0.0 | 1.0 | 0.00 | 1.48 | 0.46 | 98 | 997.9 |
| 20260904001747 | 79 | 235 | 0.0 | 1.0 | 0.00 | 1.48 | 0.46 | 98 | 997.9 |
| 20260904001242 | 79 | 235 | 0.0 | 0.0 | 0.00 | 1.48 | 0.46 | 98 | 997.9 |
| 20260904000742 | 79 | 235 | 0.0 | 0.0 | 0.00 | 1.48 | 0.46 | 99 | 998.0 |
| 20260904000242 | 79 | 235 | 0.0 | 0.0 | 0.00 | 1.48 | 0.46 | 99 | 998.0 |
| 20260903235744 | 79 | 235 | 0.0 | 0.0 | 0.00 | 1.48 | 0.46 | 98 | 998.0 |
| 20260903235238 | 79 | 235 | 0.0 | 0.0 | 0.00 | 1.48 | 0.46 | 98 | 998.0 |
| 20260903234738 | 79 | 235 | 0.0 | 0.0 | 0.00 | 1.48 | 0.46 | 98 | 998.0 |
| 20260903234240 | 79 | 235 | 0.0 | 0.0 | 0.00 | 1.49 | 0.46 | 99 | 998.0 |
| 20260903233739 | 79 | 235 | 0.0 | 1.0 | 0.00 | 1.49 | 0.46 | 99 | 998.0 |
| 20260903233238 | 79 | 235 | 0.0 | 1.0 | 0.00 | 1.49 | 0.46 | 99 | 998.1 |
| 20260903232738 | 79 | 235 | 0.0 | 1.0 | 0.00 | 1.49 | 0.46 | 99 | 998.1 |
| 20260903232238 | 79 | 235 | 0.0 | 1.0 | 0.00 | 1.49 | 0.46 | 99 | 998.2 |
| 20260903231739 | 79 | 235 | 0.0 | 1.0 | 0.00 | 1.49 | 0.46 | 98 | 998.3 |
| 20260903231238 | 79 | 163 | 0.0 | 1.0 | 0.00 | 1.49 | 0.46 | 98 | 998.3 |
| 20260903230952 | 79 | 163 | 0.0 | 1.0 | 0.00 | 1.49 | 0.46 | 98 | 998.3 |
| 20260903230233 | 79 | 163 | 0.0 | 1.0 | 0.00 | 1.51 | 0.46 | 99 | 998.3 |
| 20260903225734 | 79 | 163 | 0.0 | 1.0 | 0.00 | 1.54 | 0.46 | 99 | 998.3 |
| 20260903225234 | 79 | 163 | 0.0 | 1.0 | 0.00 | 1.67 | 0.46 | 99 | 998.2 |
| 20260903224734 | 79 | 163 | 0.0 | 1.0 | 0.00 | 1.69 | 0.46 | 99 | 998.2 |
| 20260903224234 | 79 | 168 | 0.0 | 1.0 | 0.00 | 1.70 | 0.46 | 99 | 998.2 |
| 20260903223734 | 79 | 259 | 0.0 | 1.0 | 0.00 | 1.70 | 0.46 | 99 | 998.1 |
| 20260903223234 | 79 | 175 | 0.0 | 1.0 | 0.00 | 1.70 | 0.46 | 99 | 998.1 |
| 20260903222734 | 79 | 213 | 0.0 | 1.0 | 0.00 | 1.70 | 0.46 | 99 | 998.1 |
| 20260903222710 | 79 | 213 | 0.0 | 1.0 | 0.00 | 1.70 | 0.46 | 99 | 998.1 |
| 20260903221949 | 79 | 213 | 0.0 | 1.0 | 0.00 | 1.70 | 0.46 | 99 | 998.2 |
| 20260903221230 | 79 | 213 | 0.0 | 0.0 | 0.00 | 1.70 | 0.46 | 99 | 998.3 |
| 20260903220730 | 79 | 213 | 0.0 | 1.0 | 0.00 | 1.70 | 0.46 | 99 | 998.4 |
| 20260903220230 | 79 | 213 | 0.0 | 1.0 | 0.01 | 1.70 | 0.46 | 99 | 998.6 |
| 20260903220000 | 79 | 213 | 0.0 | 1.0 | 0.01 | 1.70 | 0.46 | 99 | 998.5 |
| 20260903215232 | 79 | 287 | 0.0 | 0.0 | 0.01 | 1.70 | 0.46 | 99 | 998.6 |
| 20260903215212 | 78 | 287 | 0.0 | 0.0 | 0.01 | 1.70 | 0.46 | 99 | 998.7 |
| 20260903214230 | 78 | 287 | 0.0 | 0.0 | 0.01 | 1.70 | 0.46 | 99 | 998.7 |
| 20260903213729 | 78 | 0 | 0.0 | 0.0 | 0.02 | 1.70 | 0.46 | 99 | 998.8 |
| 20260903213230 | 78 | 0 | 0.0 | 0.0 | 0.02 | 1.70 | 0.46 | 98 | 998.7 |
| 20260903212730 | 78 | 0 | 0.0 | 0.0 | 0.02 | 1.70 | 0.46 | 98 | 998.8 |
| 20260903212230 | 78 | 0 | 0.0 | 0.0 | 0.02 | 1.70 | 0.46 | 98 | 998.9 |
| 20260903211959 | 78 | 0 | 0.0 | 0.0 | 0.02 | 1.70 | 0.46 | 98 | 999.0 |
| 20260903211452 | 78 | 0 | 0.0 | 0.0 | 0.02 | 1.70 | 0.46 | 98 | 999.1 |
| 20260903210730 | 78 | 0 | 0.0 | 0.0 | 0.02 | 1.70 | 0.46 | 98 | 999.1 |
| 20260903210230 | 78 | 0 | 0.0 | 0.0 | 0.02 | 1.69 | 0.45 | 98 | 999.2 |
| 20260903205726 | 78 | 0 | 0.0 | 0.0 | 0.03 | 1.69 | 0.45 | 98 | 999.2 |
| 20260903205227 | 78 | 0 | 0.0 | 0.0 | 0.03 | 1.69 | 0.45 | 98 | 999.3 |
| 20260903205213 | 78 | 0 | 0.0 | 0.0 | 0.04 | 1.69 | 0.45 | 98 | 999.4 |
| 20260903204226 | 78 | 0 | 0.0 | 0.0 | 0.04 | 1.69 | 0.45 | 98 | 999.4 |
| 20260903203726 | 78 | 0 | 0.0 | 0.0 | 0.03 | 1.68 | 0.45 | 98 | 999.4 |
| 20260903203226 | 78 | 0 | 0.0 | 0.0 | 0.03 | 1.68 | 0.44 | 98 | 999.5 |
| 20260903202725 | 78 | 0 | 0.0 | 1.0 | 0.03 | 1.68 | 0.44 | 98 | 999.5 |
| 20260903202227 | 78 | 0 | 0.0 | 1.0 | 0.03 | 1.68 | 0.44 | 98 | 999.4 |
| 20260903202211 | 78 | 0 | 0.0 | 1.0 | 0.03 | 1.68 | 0.44 | 98 | 999.5 |
| 20260903201222 | 78 | 0 | 0.0 | 1.0 | 0.03 | 1.68 | 0.44 | 98 | 999.5 |